Time,TemperatureF,DewpointF,PressureIn,WindDirection,WindDirectionDegrees,WindSpeedMPH,WindSpeedGustMPH,Humidity,HourlyPrecipIn,Conditions,Clouds,dailyrainin,SoftwareType,DateUTC
2013-04-08 00:00:00,69.3,57.0,30.01,ENE,68,0.0,0.0,65,0.00,,---,0.00,VWS V13.01,2013-04-08 04:00:00,
2013-04-08 00:05:00,69.3,57.4,30.01,ENE,68,0.0,0.0,66,0.00,,---,0.00,VWS V13.01,2013-04-08 04:05:00,
2013-04-08 00:10:00,69.3,57.4,30.01,ENE,68,0.0,0.0,66,0.00,,---,0.00,VWS V13.01,2013-04-08 04:10:00,
2013-04-08 00:15:00,68.9,57.1,30.01,ENE,68,0.0,0.0,66,0.00,,---,0.00,VWS V13.01,2013-04-08 04:15:00,
2013-04-08 00:20:00,68.9,57.5,30.01,ENE,68,0.0,0.0,67,0.00,,---,0.00,VWS V13.01,2013-04-08 04:20:00,
2013-04-08 00:25:00,68.7,57.3,30.01,ENE,68,0.0,0.0,67,0.00,,---,0.00,VWS V13.01,2013-04-08 04:25:00,
2013-04-08 00:30:00,68.5,57.2,30.01,ENE,68,0.0,0.0,67,0.00,,---,0.00,VWS V13.01,2013-04-08 04:30:00,
2013-04-08 00:35:00,68.4,57.0,30.01,ENE,68,0.0,0.0,67,0.00,,---,0.00,VWS V13.01,2013-04-08 04:35:00,
2013-04-08 00:40:00,68.4,57.0,30.00,ENE,68,0.0,0.0,67,0.00,,---,0.00,VWS V13.01,2013-04-08 04:40:00,
2013-04-08 00:45:00,68.2,57.2,30.00,ENE,68,0.0,0.0,68,0.00,,---,0.00,VWS V13.01,2013-04-08 04:45:00,
2013-04-08 00:50:00,68.0,57.1,30.00,ENE,68,0.0,0.0,68,0.00,,---,0.00,VWS V13.01,2013-04-08 04:50:00,
2013-04-08 00:55:00,67.8,57.3,30.00,ENE,68,0.0,0.0,69,0.00,,---,0.00,VWS V13.01,2013-04-08 04:55:00,
2013-04-08 01:00:00,67.6,57.1,30.00,ENE,68,0.0,0.0,69,0.00,,---,0.00,VWS V13.01,2013-04-08 05:00:00,
2013-04-08 01:05:00,67.6,57.1,30.00,ENE,68,0.0,0.0,69,0.00,,---,0.00,VWS V13.01,2013-04-08 05:05:00,
2013-04-08 01:10:00,67.6,57.1,30.00,ENE,68,0.0,0.0,69,0.00,,---,0.00,VWS V13.01,2013-04-08 05:10:00,
2013-04-08 01:15:00,67.1,57.0,29.99,ENE,68,0.0,0.0,70,0.00,,---,0.00,VWS V13.01,2013-04-08 05:15:00,
2013-04-08 01:20:00,67.1,57.0,29.99,ENE,68,0.0,0.0,70,0.00,,---,0.00,VWS V13.01,2013-04-08 05:20:00,
2013-04-08 01:25:00,66.9,57.2,29.99,ENE,68,0.0,0.0,71,0.00,,---,0.00,VWS V13.01,2013-04-08 05:25:00,
2013-04-08 01:30:00,66.9,57.6,29.99,ENE,68,0.0,0.0,72,0.00,,---,0.00,VWS V13.01,2013-04-08 05:30:00,
2013-04-08 01:35:00,66.6,57.3,29.99,ENE,68,0.0,0.0,72,0.00,,---,0.00,VWS V13.01,2013-04-08 05:35:00,
2013-04-08 01:40:00,66.6,57.7,29.99,ENE,68,0.0,0.0,73,0.00,,---,0.00,VWS V13.01,2013-04-08 05:40:00,
2013-04-08 01:45:00,66.2,57.3,29.99,ENE,68,0.0,0.0,73,0.00,,---,0.00,VWS V13.01,2013-04-08 05:45:00,
2013-04-08 01:50:00,66.0,57.1,29.99,ENE,68,0.0,0.0,73,0.00,,---,0.00,VWS V13.01,2013-04-08 05:50:00,
2013-04-08 01:55:00,66.0,57.1,29.99,ENE,68,0.0,0.0,73,0.00,,---,0.00,VWS V13.01,2013-04-08 05:55:00,
2013-04-08 02:00:00,65.8,57.0,29.99,ENE,68,0.0,0.0,73,0.00,,---,0.00,VWS V13.01,2013-04-08 06:00:00,
2013-04-08 02:06:00,65.8,57.0,29.99,ENE,68,0.0,0.0,73,0.00,,---,0.00,VWS V13.01,2013-04-08 06:06:00,
2013-04-08 02:11:00,65.8,57.3,29.98,ENE,68,0.0,0.0,74,0.00,,---,0.00,VWS V13.01,2013-04-08 06:11:00,
2013-04-08 02:16:00,65.8,57.3,29.98,ENE,68,0.0,0.0,74,0.00,,---,0.00,VWS V13.01,2013-04-08 06:16:00,
2013-04-08 02:21:00,65.7,57.2,29.98,ENE,68,0.0,0.0,74,0.00,,---,0.00,VWS V13.01,2013-04-08 06:21:00,
2013-04-08 02:26:00,65.7,57.5,29.98,ENE,68,0.0,0.0,75,0.00,,---,0.00,VWS V13.01,2013-04-08 06:26:00,
2013-04-08 02:30:00,65.5,57.4,29.98,ENE,68,0.0,0.0,75,0.00,,---,0.00,VWS V13.01,2013-04-08 06:30:00,
2013-04-08 02:35:00,65.5,57.4,29.97,ENE,68,0.0,0.0,75,0.00,,---,0.00,VWS V13.01,2013-04-08 06:35:00,
2013-04-08 02:40:00,65.5,57.4,29.98,ENE,68,0.0,0.0,75,0.00,,---,0.00,VWS V13.01,2013-04-08 06:40:00,
2013-04-08 02:45:00,65.1,57.7,29.97,ENE,68,0.0,0.0,77,0.00,,---,0.00,VWS V13.01,2013-04-08 06:45:00,
2013-04-08 02:50:00,65.1,57.4,29.97,ENE,68,0.0,0.0,76,0.00,,---,0.00,VWS V13.01,2013-04-08 06:50:00,
2013-04-08 02:55:00,64.9,57.6,29.97,ENE,68,0.0,0.0,77,0.00,,---,0.00,VWS V13.01,2013-04-08 06:55:00,
2013-04-08 03:00:00,64.8,57.4,29.98,ENE,68,0.0,0.0,77,0.00,,---,0.00,VWS V13.01,2013-04-08 07:00:00,
2013-04-08 03:06:00,64.6,57.2,29.98,ENE,68,0.0,0.0,77,0.00,,---,0.00,VWS V13.01,2013-04-08 07:06:00,
2013-04-08 03:11:00,64.6,57.2,29.98,ENE,68,0.0,0.0,77,0.00,,---,0.00,VWS V13.01,2013-04-08 07:11:00,
2013-04-08 03:16:00,64.8,57.4,29.97,ENE,68,0.0,0.0,77,0.00,,---,0.00,VWS V13.01,2013-04-08 07:16:00,
2013-04-08 03:21:00,64.8,57.8,29.97,ENE,68,0.0,0.0,78,0.00,,---,0.00,VWS V13.01,2013-04-08 07:21:00,
2013-04-08 03:26:00,64.8,57.8,29.97,ENE,68,0.0,0.0,78,0.00,,---,0.00,VWS V13.01,2013-04-08 07:26:00,
2013-04-08 03:31:00,64.9,57.9,29.97,ENE,68,0.0,0.0,78,0.00,,---,0.00,VWS V13.01,2013-04-08 07:31:00,
2013-04-08 03:36:00,65.1,58.1,29.97,ENE,68,0.0,0.0,78,0.00,,---,0.00,VWS V13.01,2013-04-08 07:36:00,
2013-04-08 03:41:00,64.9,57.9,29.97,ENE,68,0.0,0.0,78,0.00,,---,0.00,VWS V13.01,2013-04-08 07:41:00,
2013-04-08 03:46:00,64.9,58.3,29.97,ENE,68,0.0,0.0,79,0.00,,---,0.00,VWS V13.01,2013-04-08 07:46:00,
2013-04-08 03:51:00,64.9,58.3,29.97,ENE,68,0.0,0.0,79,0.00,,---,0.00,VWS V13.01,2013-04-08 07:51:00,
2013-04-08 03:57:00,64.8,58.1,29.97,ENE,68,0.0,0.0,79,0.00,,---,0.00,VWS V13.01,2013-04-08 07:57:00,
2013-04-08 04:02:00,64.8,58.1,29.97,ENE,68,0.0,0.0,79,0.00,,---,0.00,VWS V13.01,2013-04-08 08:02:00,
2013-04-08 04:07:00,64.8,58.1,29.97,ENE,68,0.0,0.0,79,0.00,,---,0.00,VWS V13.01,2013-04-08 08:07:00,
2013-04-08 04:12:00,64.6,57.9,29.96,ENE,68,0.0,0.0,79,0.00,,---,0.00,VWS V13.01,2013-04-08 08:12:00,
2013-04-08 04:17:00,64.6,57.9,29.96,ENE,68,0.0,0.0,79,0.00,,---,0.00,VWS V13.01,2013-04-08 08:17:00,
2013-04-08 04:22:00,64.4,57.8,29.96,ENE,68,0.0,0.0,79,0.00,,---,0.00,VWS V13.01,2013-04-08 08:22:00,
2013-04-08 04:27:00,64.2,57.6,29.96,ENE,68,0.0,0.0,79,0.00,,---,0.00,VWS V13.01,2013-04-08 08:27:00,
2013-04-08 04:32:00,64.0,57.4,29.96,ENE,68,0.0,0.0,79,0.00,,---,0.00,VWS V13.01,2013-04-08 08:32:00,
2013-04-08 04:37:00,63.9,57.2,29.96,ENE,68,0.0,0.0,79,0.00,,---,0.00,VWS V13.01,2013-04-08 08:37:00,
2013-04-08 04:42:00,63.7,57.4,29.96,ENE,68,0.0,0.0,80,0.00,,---,0.00,VWS V13.01,2013-04-08 08:42:00,
2013-04-08 04:47:00,63.7,57.4,29.96,ENE,68,0.0,0.0,80,0.00,,---,0.00,VWS V13.01,2013-04-08 08:47:00,
2013-04-08 04:52:00,63.7,57.4,29.96,ENE,68,0.0,0.0,80,0.00,,---,0.00,VWS V13.01,2013-04-08 08:52:00,
2013-04-08 04:57:00,63.5,57.2,29.96,ENE,68,0.0,0.0,80,0.00,,---,0.00,VWS V13.01,2013-04-08 08:57:00,
2013-04-08 05:02:00,63.5,57.2,29.96,ENE,68,0.0,0.0,80,0.00,,---,0.00,VWS V13.01,2013-04-08 09:02:00,
2013-04-08 05:07:00,63.5,57.2,29.96,ENE,68,0.0,0.0,80,0.00,,---,0.00,VWS V13.01,2013-04-08 09:07:00,
2013-04-08 05:12:00,63.3,57.0,29.96,ENE,68,0.0,0.0,80,0.00,,---,0.00,VWS V13.01,2013-04-08 09:12:00,
2013-04-08 05:17:00,63.3,57.0,29.96,ENE,68,0.0,0.0,80,0.00,,---,0.00,VWS V13.01,2013-04-08 09:17:00,
2013-04-08 05:22:00,63.1,56.9,29.96,ENE,68,0.0,0.0,80,0.00,,---,0.00,VWS V13.01,2013-04-08 09:22:00,
2013-04-08 05:27:00,63.1,56.9,29.97,ENE,68,0.0,0.0,80,0.00,,---,0.00,VWS V13.01,2013-04-08 09:27:00,
2013-04-08 05:32:00,63.0,57.0,29.96,ENE,68,0.0,0.0,81,0.00,,---,0.00,VWS V13.01,2013-04-08 09:32:00,
2013-04-08 05:37:00,63.1,57.2,29.96,ENE,68,0.0,0.0,81,0.00,,---,0.00,VWS V13.01,2013-04-08 09:37:00,
2013-04-08 05:42:00,63.0,57.0,29.96,ENE,68,0.0,0.0,81,0.00,,---,0.00,VWS V13.01,2013-04-08 09:42:00,
2013-04-08 05:47:00,63.1,57.2,29.96,ENE,68,0.0,0.0,81,0.00,,---,0.00,VWS V13.01,2013-04-08 09:47:00,
2013-04-08 05:52:00,63.0,57.0,29.96,ENE,68,0.0,0.0,81,0.00,,---,0.00,VWS V13.01,2013-04-08 09:52:00,
2013-04-08 05:57:00,63.0,57.0,29.96,ENE,68,0.0,0.0,81,0.00,,---,0.00,VWS V13.01,2013-04-08 09:57:00,
2013-04-08 06:02:00,63.0,57.0,29.96,ENE,68,0.0,0.0,81,0.00,,---,0.00,VWS V13.01,2013-04-08 10:02:00,
2013-04-08 06:07:00,62.8,56.9,29.97,ENE,68,0.0,0.0,81,0.00,,---,0.00,VWS V13.01,2013-04-08 10:07:00,
2013-04-08 06:13:00,62.8,56.9,29.97,ENE,68,0.0,0.0,81,0.00,,---,0.00,VWS V13.01,2013-04-08 10:13:00,
2013-04-08 06:18:00,62.8,56.9,29.97,ENE,68,0.0,0.0,81,0.00,,---,0.00,VWS V13.01,2013-04-08 10:18:00,
2013-04-08 06:23:00,62.8,56.9,29.97,ENE,68,0.0,0.0,81,0.00,,---,0.00,VWS V13.01,2013-04-08 10:23:00,
2013-04-08 06:28:00,62.8,56.9,29.97,ENE,68,0.0,0.0,81,0.00,,---,0.00,VWS V13.01,2013-04-08 10:28:00,
2013-04-08 06:33:00,62.6,57.0,29.97,ENE,68,0.0,0.0,82,0.00,,---,0.00,VWS V13.01,2013-04-08 10:33:00,
2013-04-08 06:38:00,62.4,56.9,29.97,ENE,68,0.0,0.0,82,0.00,,---,0.00,VWS V13.01,2013-04-08 10:38:00,
2013-04-08 06:43:00,62.2,56.7,29.97,ENE,68,0.0,0.0,82,0.00,,---,0.00,VWS V13.01,2013-04-08 10:43:00,
2013-04-08 06:48:00,62.2,56.7,29.98,ENE,68,0.0,0.0,82,0.00,,---,0.00,VWS V13.01,2013-04-08 10:48:00,
2013-04-08 06:53:00,62.2,56.7,29.98,ENE,68,0.0,0.0,82,0.00,,---,0.00,VWS V13.01,2013-04-08 10:53:00,
2013-04-08 06:58:00,62.2,56.7,29.98,ENE,68,0.0,0.0,82,0.00,,---,0.00,VWS V13.01,2013-04-08 10:58:00,
2013-04-08 07:04:00,62.2,56.7,29.99,ENE,68,0.0,0.0,82,0.00,,---,0.00,VWS V13.01,2013-04-08 11:04:00,
2013-04-08 07:09:00,62.2,56.7,29.99,North,0,0.0,0.0,82,0.00,,---,0.00,VWS V13.01,2013-04-08 11:09:00,
2013-04-08 07:14:00,62.1,56.5,29.99,North,0,0.0,0.0,82,0.00,,---,0.00,VWS V13.01,2013-04-08 11:14:00,
2013-04-08 07:19:00,62.2,56.7,29.99,North,0,0.0,0.0,82,0.00,,---,0.00,VWS V13.01,2013-04-08 11:19:00,
2013-04-08 07:24:00,62.8,57.5,29.99,North,0,0.0,0.0,83,0.00,,---,0.00,VWS V13.01,2013-04-08 11:24:00,
2013-04-08 07:29:00,63.0,57.7,29.99,North,0,0.0,0.0,83,0.00,,---,0.00,VWS V13.01,2013-04-08 11:29:00,
2013-04-08 07:34:00,63.5,58.2,29.99,North,0,0.0,0.0,83,0.00,,---,0.00,VWS V13.01,2013-04-08 11:34:00,
2013-04-08 07:39:00,63.9,58.9,29.99,North,0,0.0,0.0,84,0.00,,---,0.00,VWS V13.01,2013-04-08 11:39:00,
2013-04-08 07:44:00,64.0,58.8,30.00,North,0,0.0,0.0,83,0.00,,---,0.00,VWS V13.01,2013-04-08 11:44:00,
2013-04-08 07:49:00,64.4,59.1,30.00,North,0,0.0,0.0,83,0.00,,---,0.00,VWS V13.01,2013-04-08 11:49:00,
2013-04-08 07:54:00,64.8,59.5,30.00,North,0,0.0,0.0,83,0.00,,---,0.00,VWS V13.01,2013-04-08 11:54:00,
2013-04-08 07:59:00,65.3,60.0,30.00,North,0,0.0,0.0,83,0.00,,---,0.00,VWS V13.01,2013-04-08 11:59:00,
2013-04-08 08:04:00,65.8,60.5,30.00,North,0,0.0,0.0,83,0.00,,---,0.00,VWS V13.01,2013-04-08 12:04:00,
2013-04-08 08:09:00,66.4,61.1,30.01,North,0,0.0,0.0,83,0.00,,---,0.00,VWS V13.01,2013-04-08 12:09:00,
2013-04-08 08:14:00,67.1,61.8,30.01,North,0,0.0,0.0,83,0.00,,---,0.00,VWS V13.01,2013-04-08 12:14:00,
2013-04-08 08:19:00,68.2,62.5,30.01,North,0,0.0,0.0,82,0.00,,---,0.00,VWS V13.01,2013-04-08 12:19:00,
2013-04-08 08:24:00,68.7,63.3,30.01,North,0,0.0,0.0,83,0.00,,---,0.00,VWS V13.01,2013-04-08 12:24:00,
2013-04-08 08:30:00,69.3,63.5,30.01,North,0,0.0,0.0,82,0.00,,---,0.00,VWS V13.01,2013-04-08 12:30:00,
2013-04-08 08:35:00,70.2,64.1,30.01,North,0,0.0,0.0,81,0.00,,---,0.00,VWS V13.01,2013-04-08 12:35:00,
2013-04-08 08:40:00,70.9,63.7,30.01,North,0,0.0,0.0,78,0.00,,---,0.00,VWS V13.01,2013-04-08 12:40:00,
2013-04-08 08:45:00,71.6,63.6,30.01,North,0,0.0,0.0,76,0.00,,---,0.00,VWS V13.01,2013-04-08 12:45:00,
2013-04-08 08:50:00,72.3,63.6,30.01,North,0,0.0,0.0,74,0.00,,---,0.00,VWS V13.01,2013-04-08 12:50:00,
2013-04-08 08:55:00,72.9,62.9,30.01,North,0,0.0,0.0,71,0.00,,---,0.00,VWS V13.01,2013-04-08 12:55:00,
2013-04-08 09:00:00,73.6,62.8,30.01,North,0,0.0,0.0,69,0.00,,---,0.00,VWS V13.01,2013-04-08 13:00:00,
2013-04-08 09:05:00,74.3,62.2,30.01,NNE,22,0.0,0.0,66,0.00,,---,0.00,VWS V13.01,2013-04-08 13:05:00,
2013-04-08 09:10:00,74.7,61.2,30.01,ENE,68,0.0,0.0,63,0.00,,---,0.00,VWS V13.01,2013-04-08 13:10:00,
2013-04-08 09:15:00,75.4,61.0,30.02,ENE,68,0.0,0.0,61,0.00,,---,0.00,VWS V13.01,2013-04-08 13:15:00,
2013-04-08 09:20:00,75.6,60.2,30.02,ENE,68,0.0,0.0,59,0.00,,---,0.00,VWS V13.01,2013-04-08 13:20:00,
2013-04-08 09:25:00,75.9,59.6,30.02,ENE,68,0.0,0.0,57,0.00,,---,0.00,VWS V13.01,2013-04-08 13:25:00,
2013-04-08 09:31:00,76.5,59.1,30.02,ENE,68,0.0,1.1,55,0.00,,---,0.00,VWS V13.01,2013-04-08 13:31:00,
2013-04-08 09:36:00,76.8,58.4,30.02,East,90,2.7,2.7,53,0.00,,---,0.00,VWS V13.01,2013-04-08 13:36:00,
2013-04-08 09:41:00,77.2,58.2,30.02,East,90,1.1,4.9,52,0.00,,---,0.00,VWS V13.01,2013-04-08 13:41:00,
2013-04-08 09:46:00,77.4,57.8,30.02,ENE,68,2.0,4.9,51,0.00,,---,0.00,VWS V13.01,2013-04-08 13:46:00,
2013-04-08 09:51:00,77.5,56.9,30.02,ENE,68,0.0,6.5,49,0.00,,---,0.00,VWS V13.01,2013-04-08 13:51:00,
2013-04-08 09:56:00,77.7,57.1,30.02,East,90,0.0,6.5,49,0.00,,---,0.00,VWS V13.01,2013-04-08 13:56:00,
2013-04-08 10:01:00,78.1,56.2,30.02,East,90,0.0,0.0,47,0.00,,---,0.00,VWS V13.01,2013-04-08 14:01:00,
2013-04-08 10:06:00,78.4,56.6,30.02,ENE,68,0.0,1.1,47,0.00,,---,0.00,VWS V13.01,2013-04-08 14:06:00,
2013-04-08 10:11:00,78.8,56.9,30.02,East,90,3.6,4.5,47,0.00,,---,0.00,VWS V13.01,2013-04-08 14:11:00,
2013-04-08 10:15:00,79.2,57.2,30.03,ENE,68,0.0,4.5,47,0.00,,---,0.00,VWS V13.01,2013-04-08 14:15:00,
2013-04-08 10:20:00,79.3,56.8,30.03,ENE,68,0.0,4.5,46,0.00,,---,0.00,VWS V13.01,2013-04-08 14:20:00,
2013-04-08 10:25:00,79.5,56.3,30.03,East,90,3.6,4.5,45,0.00,,---,0.00,VWS V13.01,2013-04-08 14:25:00,
2013-04-08 10:31:00,79.9,56.0,30.03,East,90,2.0,4.5,44,0.00,,---,0.00,VWS V13.01,2013-04-08 14:31:00,
2013-04-08 10:36:00,80.1,55.6,30.03,ENE,68,2.2,4.5,43,0.00,,---,0.00,VWS V13.01,2013-04-08 14:36:00,
2013-04-08 10:41:00,80.2,55.7,30.03,East,90,0.0,4.5,43,0.00,,---,0.00,VWS V13.01,2013-04-08 14:41:00,
2013-04-08 10:46:00,80.6,55.4,30.03,ENE,68,0.0,4.9,42,0.00,,---,0.00,VWS V13.01,2013-04-08 14:46:00,
2013-04-08 10:51:00,80.4,54.6,30.04,NE,45,0.0,4.9,41,0.00,,---,0.00,VWS V13.01,2013-04-08 14:51:00,
2013-04-08 10:56:00,80.6,54.8,30.04,NE,45,0.0,4.9,41,0.00,,---,0.00,VWS V13.01,2013-04-08 14:56:00,
2013-04-08 11:02:00,81.1,55.9,30.04,ENE,68,0.0,2.2,42,0.00,,---,0.00,VWS V13.01,2013-04-08 15:02:00,
2013-04-08 11:07:00,81.9,56.5,30.04,ENE,68,0.0,4.5,42,0.00,,---,0.00,VWS V13.01,2013-04-08 15:07:00,
2013-04-08 11:12:00,82.2,56.2,30.04,East,90,5.6,5.6,41,0.00,,---,0.00,VWS V13.01,2013-04-08 15:12:00,
2013-04-08 11:17:00,82.2,56.2,30.04,ENE,68,0.0,5.6,41,0.00,,---,0.00,VWS V13.01,2013-04-08 15:17:00,
2013-04-08 11:22:00,81.9,55.9,30.04,East,90,0.0,5.6,41,0.00,,---,0.00,VWS V13.01,2013-04-08 15:22:00,
2013-04-08 11:27:00,81.3,56.1,30.04,NE,45,3.1,6.5,42,0.00,,---,0.00,VWS V13.01,2013-04-08 15:27:00,
2013-04-08 11:32:00,81.0,55.7,30.04,NE,45,0.0,6.5,42,0.00,,---,0.00,VWS V13.01,2013-04-08 15:32:00,
2013-04-08 11:37:00,81.5,56.9,30.04,ENE,68,5.1,6.5,43,0.00,,---,0.00,VWS V13.01,2013-04-08 15:37:00,
2013-04-08 11:42:00,82.0,57.4,30.04,East,90,1.3,6.9,43,0.00,,---,0.00,VWS V13.01,2013-04-08 15:42:00,
2013-04-08 11:47:00,82.8,57.3,30.04,ENE,68,4.9,7.4,42,0.00,,---,0.00,VWS V13.01,2013-04-08 15:47:00,
2013-04-08 11:52:00,82.9,56.8,30.04,East,90,1.8,7.4,41,0.00,,---,0.00,VWS V13.01,2013-04-08 15:52:00,
2013-04-08 11:57:00,83.3,56.5,30.04,ENE,68,4.7,7.4,40,0.00,,---,0.00,VWS V13.01,2013-04-08 15:57:00,
2013-04-08 12:02:00,82.8,56.0,30.04,ENE,68,6.7,6.7,40,0.00,,---,0.00,VWS V13.01,2013-04-08 16:02:00,
2013-04-08 12:07:00,82.8,56.0,30.04,ENE,68,2.7,11.0,40,0.00,,---,0.00,VWS V13.01,2013-04-08 16:07:00,
2013-04-08 12:12:00,82.4,55.0,30.04,East,90,4.3,11.0,39,0.00,,---,0.00,VWS V13.01,2013-04-08 16:12:00,
2013-04-08 12:17:00,82.2,54.8,30.04,East,90,1.6,11.0,39,0.00,,---,0.00,VWS V13.01,2013-04-08 16:17:00,
2013-04-08 12:22:00,82.4,54.3,30.04,East,90,0.0,11.0,38,0.00,,---,0.00,VWS V13.01,2013-04-08 16:22:00,
2013-04-08 12:27:00,82.0,53.2,30.03,NE,45,2.9,11.0,37,0.00,,---,0.00,VWS V13.01,2013-04-08 16:27:00,
2013-04-08 12:32:00,82.8,56.0,30.04,East,90,2.5,11.0,40,0.00,,---,0.00,VWS V13.01,2013-04-08 16:32:00,
2013-04-08 12:37:00,83.3,54.3,30.03,ENE,68,0.0,11.0,37,0.00,,---,0.00,VWS V13.01,2013-04-08 16:37:00,
2013-04-08 12:42:00,83.3,54.3,30.03,East,90,1.8,11.0,37,0.00,,---,0.00,VWS V13.01,2013-04-08 16:42:00,
2013-04-08 12:47:00,83.3,55.1,30.03,ENE,68,2.9,11.0,38,0.00,,---,0.00,VWS V13.01,2013-04-08 16:47:00,
2013-04-08 12:52:00,81.9,54.5,30.03,ESE,112,2.0,11.0,39,0.00,,---,0.00,VWS V13.01,2013-04-08 16:52:00,
2013-04-08 12:57:00,80.8,53.5,30.03,ESE,112,1.8,11.0,39,0.00,,---,0.00,VWS V13.01,2013-04-08 16:57:00,
2013-04-08 13:02:00,80.4,53.9,30.04,SE,135,3.6,3.6,40,0.00,,---,0.00,VWS V13.01,2013-04-08 17:02:00,
2013-04-08 13:07:00,81.5,56.2,30.03,SE,135,5.4,7.2,42,0.00,,---,0.00,VWS V13.01,2013-04-08 17:07:00,
2013-04-08 13:12:00,82.8,56.0,30.03,East,90,5.6,7.2,40,0.00,,---,0.00,VWS V13.01,2013-04-08 17:12:00,
2013-04-08 13:17:00,82.6,55.1,30.03,ESE,112,0.0,7.2,39,0.00,,---,0.00,VWS V13.01,2013-04-08 17:17:00,
2013-04-08 13:22:00,82.4,54.3,30.02,ESE,112,0.0,7.2,38,0.00,,---,0.00,VWS V13.01,2013-04-08 17:22:00,
2013-04-08 13:27:00,82.0,53.2,30.02,SE,135,4.5,7.2,37,0.00,,---,0.00,VWS V13.01,2013-04-08 17:27:00,
2013-04-08 13:32:00,82.2,54.8,30.02,East,90,6.3,7.2,39,0.00,,---,0.00,VWS V13.01,2013-04-08 17:32:00,
2013-04-08 13:37:00,83.3,56.5,30.01,ESE,112,0.0,7.2,40,0.00,,---,0.00,VWS V13.01,2013-04-08 17:37:00,
2013-04-08 13:42:00,82.9,54.8,30.01,East,90,1.8,9.4,38,0.00,,---,0.00,VWS V13.01,2013-04-08 17:42:00,
2013-04-08 13:47:00,82.8,54.6,30.01,East,90,0.0,9.4,38,0.00,,---,0.00,VWS V13.01,2013-04-08 17:47:00,
2013-04-08 13:52:00,82.8,53.1,30.01,SSE,158,0.0,9.4,36,0.00,,---,0.00,VWS V13.01,2013-04-08 17:52:00,
2013-04-08 13:57:00,83.7,54.7,30.01,ESE,112,0.0,9.4,37,0.00,,---,0.00,VWS V13.01,2013-04-08 17:57:00,
2013-04-08 14:02:00,84.2,54.4,30.00,East,90,0.0,4.5,36,0.00,,---,0.00,VWS V13.01,2013-04-08 18:02:00,
2013-04-08 14:07:00,84.4,53.8,30.00,SE,135,6.9,6.9,35,0.00,,---,0.00,VWS V13.01,2013-04-08 18:07:00,
2013-04-08 14:12:00,84.9,53.5,30.00,ESE,112,2.0,6.9,34,0.00,,---,0.00,VWS V13.01,2013-04-08 18:12:00,
2013-04-08 14:17:00,84.9,52.6,29.99,ESE,112,2.9,8.1,33,0.00,,---,0.00,VWS V13.01,2013-04-08 18:17:00,
2013-04-08 14:22:00,84.6,49.8,29.99,ESE,112,2.9,8.1,30,0.00,,---,0.00,VWS V13.01,2013-04-08 18:22:00,
2013-04-08 14:27:00,84.6,47.9,29.99,ENE,68,4.3,8.1,28,0.00,,---,0.00,VWS V13.01,2013-04-08 18:27:00,
2013-04-08 14:32:00,84.6,47.9,29.99,ENE,68,1.8,8.1,28,0.00,,---,0.00,VWS V13.01,2013-04-08 18:32:00,
2013-04-08 14:37:00,84.7,49.9,29.99,ENE,68,3.8,8.3,30,0.00,,---,0.00,VWS V13.01,2013-04-08 18:37:00,
2013-04-08 14:42:00,84.7,50.8,29.99,ENE,68,1.8,8.7,31,0.00,,---,0.00,VWS V13.01,2013-04-08 18:42:00,
2013-04-08 14:47:00,84.9,51.8,29.99,East,90,1.6,8.7,32,0.00,,---,0.00,VWS V13.01,2013-04-08 18:47:00,
2013-04-08 14:52:00,84.6,48.8,29.99,ESE,112,2.0,8.7,29,0.00,,---,0.00,VWS V13.01,2013-04-08 18:52:00,
2013-04-08 14:57:00,84.4,51.3,29.99,SSE,158,7.2,8.7,32,0.00,,---,0.00,VWS V13.01,2013-04-08 18:57:00,
2013-04-08 15:02:00,84.4,52.2,29.99,ENE,68,0.0,5.6,33,0.00,,---,0.00,VWS V13.01,2013-04-08 19:02:00,
2013-04-08 15:08:00,84.6,53.1,29.99,ESE,112,1.1,7.6,34,0.00,,---,0.00,VWS V13.01,2013-04-08 19:08:00,
2013-04-08 15:13:00,84.9,53.5,29.99,East,90,0.0,7.6,34,0.00,,---,0.00,VWS V13.01,2013-04-08 19:13:00,
2013-04-08 15:18:00,84.9,53.5,29.99,ESE,112,3.4,8.3,34,0.00,,---,0.00,VWS V13.01,2013-04-08 19:18:00,
2013-04-08 15:23:00,84.4,53.0,29.99,ENE,68,9.2,11.0,34,0.00,,---,0.00,VWS V13.01,2013-04-08 19:23:00,
2013-04-08 15:28:00,83.8,53.3,29.98,ENE,68,8.1,11.0,35,0.00,,---,0.00,VWS V13.01,2013-04-08 19:28:00,
2013-04-08 15:33:00,83.1,54.2,29.98,ENE,68,2.9,11.0,37,0.00,,---,0.00,VWS V13.01,2013-04-08 19:33:00,
2013-04-08 15:38:00,83.8,54.8,29.98,SE,135,4.5,11.0,37,0.00,,---,0.00,VWS V13.01,2013-04-08 19:38:00,
2013-04-08 15:43:00,84.4,55.3,29.98,ENE,68,2.5,11.0,37,0.00,,---,0.00,VWS V13.01,2013-04-08 19:43:00,
2013-04-08 15:48:00,84.7,55.6,29.98,East,90,2.5,11.0,37,0.00,,---,0.00,VWS V13.01,2013-04-08 19:48:00,
2013-04-08 15:53:00,84.6,55.5,29.98,East,90,0.0,11.0,37,0.00,,---,0.00,VWS V13.01,2013-04-08 19:53:00,
2013-04-08 15:58:00,84.7,55.6,29.98,East,90,0.0,11.0,37,0.00,,---,0.00,VWS V13.01,2013-04-08 19:58:00,
2013-04-08 16:03:00,83.8,54.1,29.98,ENE,68,5.8,6.5,36,0.00,,---,0.00,VWS V13.01,2013-04-08 20:03:00,
2013-04-08 16:08:00,83.3,53.6,29.98,East,90,7.6,8.7,36,0.00,,---,0.00,VWS V13.01,2013-04-08 20:08:00,
2013-04-08 16:13:00,82.8,53.1,29.98,ENE,68,5.8,8.7,36,0.00,,---,0.00,VWS V13.01,2013-04-08 20:13:00,
2013-04-08 16:18:00,83.3,54.3,29.97,SE,135,7.2,8.7,37,0.00,,---,0.00,VWS V13.01,2013-04-08 20:18:00,
2013-04-08 16:23:00,83.7,54.7,29.98,SE,135,3.6,8.7,37,0.00,,---,0.00,VWS V13.01,2013-04-08 20:23:00,
2013-04-08 16:28:00,83.7,53.9,29.97,East,90,7.4,8.7,36,0.00,,---,0.00,VWS V13.01,2013-04-08 20:28:00,
2013-04-08 16:33:00,83.1,52.7,29.98,ENE,68,2.0,8.7,35,0.00,,---,0.00,VWS V13.01,2013-04-08 20:33:00,
2013-04-08 16:37:00,83.3,54.3,29.97,ESE,112,6.7,8.7,37,0.00,,---,0.00,VWS V13.01,2013-04-08 20:37:00,
2013-04-08 16:43:00,83.7,54.7,29.97,East,90,1.3,8.7,37,0.00,,---,0.00,VWS V13.01,2013-04-08 20:43:00,
2013-04-08 16:48:00,83.7,53.9,29.97,ESE,112,3.4,10.7,36,0.00,,---,0.00,VWS V13.01,2013-04-08 20:48:00,
2013-04-08 16:53:00,83.5,53.0,29.97,SE,135,1.8,10.7,35,0.00,,---,0.00,VWS V13.01,2013-04-08 20:53:00,
2013-04-08 16:58:00,83.5,53.8,29.97,ESE,112,3.4,10.7,36,0.00,,---,0.00,VWS V13.01,2013-04-08 20:58:00,
2013-04-08 17:03:00,82.8,52.3,29.97,ENE,68,4.7,7.2,35,0.00,,---,0.00,VWS V13.01,2013-04-08 21:03:00,
2013-04-08 17:08:00,82.6,53.0,29.97,ENE,68,6.7,7.2,36,0.00,,---,0.00,VWS V13.01,2013-04-08 21:08:00,
2013-04-08 17:13:00,82.4,52.8,29.97,ENE,68,5.8,7.6,36,0.00,,---,0.00,VWS V13.01,2013-04-08 21:13:00,
2013-04-08 17:18:00,82.8,53.9,29.97,ESE,112,2.9,9.2,37,0.00,,---,0.00,VWS V13.01,2013-04-08 21:18:00,
2013-04-08 17:23:00,82.0,53.2,29.97,ESE,112,4.7,9.2,37,0.00,,---,0.00,VWS V13.01,2013-04-08 21:23:00,
2013-04-08 17:28:00,81.9,53.1,29.98,ESE,112,0.0,9.2,37,0.00,,---,0.00,VWS V13.01,2013-04-08 21:28:00,
2013-04-08 17:33:00,81.3,52.6,29.97,SSE,158,0.0,14.5,37,0.00,,---,0.00,VWS V13.01,2013-04-08 21:33:00,
2013-04-08 17:38:00,81.0,53.0,29.97,ENE,68,0.0,14.5,38,0.00,,---,0.00,VWS V13.01,2013-04-08 21:38:00,
2013-04-08 17:43:00,81.0,53.0,29.98,East,90,9.2,14.5,38,0.00,,---,0.00,VWS V13.01,2013-04-08 21:43:00,
2013-04-08 17:48:00,80.6,52.7,29.98,ENE,68,2.5,14.5,38,0.00,,---,0.00,VWS V13.01,2013-04-08 21:48:00,
2013-04-08 17:53:00,80.6,53.4,29.98,SE,135,5.8,14.5,39,0.00,,---,0.00,VWS V13.01,2013-04-08 21:53:00,
2013-04-08 17:58:00,80.8,53.5,29.98,SE,135,2.0,14.5,39,0.00,,---,0.00,VWS V13.01,2013-04-08 21:58:00,
2013-04-08 18:03:00,80.8,53.5,29.98,ESE,112,0.0,4.0,39,0.00,,---,0.00,VWS V13.01,2013-04-08 22:03:00,
2013-04-08 18:08:00,80.6,53.4,29.98,SE,135,0.0,5.4,39,0.00,,---,0.00,VWS V13.01,2013-04-08 22:08:00,
2013-04-08 18:13:00,80.4,53.2,29.98,ESE,112,1.1,5.8,39,0.00,,---,0.00,VWS V13.01,2013-04-08 22:13:00,
2013-04-08 18:18:00,80.1,52.9,29.98,ENE,68,1.6,7.4,39,0.00,,---,0.00,VWS V13.01,2013-04-08 22:18:00,
2013-04-08 18:23:00,79.7,53.3,29.99,ENE,68,6.0,7.4,40,0.00,,---,0.00,VWS V13.01,2013-04-08 22:23:00,
2013-04-08 18:28:00,79.2,53.5,29.99,East,90,2.2,7.6,41,0.00,,---,0.00,VWS V13.01,2013-04-08 22:28:00,
2013-04-08 18:33:00,79.0,53.3,29.98,ESE,112,0.0,7.6,41,0.00,,---,0.00,VWS V13.01,2013-04-08 22:33:00,
2013-04-08 18:38:00,79.0,54.0,29.98,ENE,68,4.5,7.6,42,0.00,,---,0.00,VWS V13.01,2013-04-08 22:38:00,
2013-04-08 18:43:00,79.0,54.0,29.99,ESE,112,1.6,7.6,42,0.00,,---,0.00,VWS V13.01,2013-04-08 22:43:00,
2013-04-08 18:48:00,78.3,53.3,29.99,ENE,68,4.3,7.6,42,0.00,,---,0.00,VWS V13.01,2013-04-08 22:48:00,
2013-04-08 18:53:00,78.1,53.2,29.99,SE,135,5.8,7.6,42,0.00,,---,0.00,VWS V13.01,2013-04-08 22:53:00,
2013-04-08 18:58:00,78.1,53.8,29.99,East,90,3.1,7.6,43,0.00,,---,0.00,VWS V13.01,2013-04-08 22:58:00,
2013-04-08 19:03:00,77.5,53.9,29.99,ENE,68,1.3,3.6,44,0.00,,---,0.00,VWS V13.01,2013-04-08 23:03:00,
2013-04-08 19:08:00,77.4,54.4,29.99,East,90,1.3,4.0,45,0.00,,---,0.00,VWS V13.01,2013-04-08 23:08:00,
2013-04-08 19:13:00,77.2,54.2,29.99,East,90,0.0,4.0,45,0.00,,---,0.00,VWS V13.01,2013-04-08 23:13:00,
2013-04-08 19:18:00,76.6,53.7,29.99,ESE,112,0.9,4.3,45,0.00,,---,0.00,VWS V13.01,2013-04-08 23:18:00,
2013-04-08 19:23:00,76.6,53.7,30.00,East,90,2.0,4.3,45,0.00,,---,0.00,VWS V13.01,2013-04-08 23:23:00,
2013-04-08 19:28:00,76.1,53.8,30.00,East,90,0.0,4.3,46,0.00,,---,0.00,VWS V13.01,2013-04-08 23:28:00,
2013-04-08 19:33:00,76.1,53.8,30.00,East,90,1.3,4.3,46,0.00,,---,0.00,VWS V13.01,2013-04-08 23:33:00,
2013-04-08 19:38:00,75.9,54.3,30.00,East,90,1.1,4.3,47,0.00,,---,0.00,VWS V13.01,2013-04-08 23:38:00,
2013-04-08 19:43:00,75.7,54.7,30.00,East,90,0.0,5.4,48,0.00,,---,0.00,VWS V13.01,2013-04-08 23:43:00,
2013-04-08 19:48:00,75.6,54.5,30.00,East,90,0.0,5.4,48,0.00,,---,0.00,VWS V13.01,2013-04-08 23:48:00,
2013-04-08 19:53:00,75.4,54.9,30.00,East,90,1.3,5.4,49,0.00,,---,0.00,VWS V13.01,2013-04-08 23:53:00,
2013-04-08 19:58:00,75.0,55.1,29.99,East,90,0.0,5.4,50,0.00,,---,0.00,VWS V13.01,2013-04-08 23:58:00,
2013-04-08 20:03:00,75.2,55.3,29.99,East,90,2.7,2.7,50,0.00,,---,0.00,VWS V13.01,2013-04-09 00:03:00,
2013-04-08 20:08:00,74.8,55.5,30.00,East,90,0.0,2.7,51,0.00,,---,0.00,VWS V13.01,2013-04-09 00:08:00,
2013-04-08 20:13:00,74.7,55.3,30.00,East,90,3.1,5.6,51,0.00,,---,0.00,VWS V13.01,2013-04-09 00:13:00,
2013-04-08 20:18:00,74.7,55.3,30.00,ENE,68,0.0,5.6,51,0.00,,---,0.00,VWS V13.01,2013-04-09 00:18:00,
2013-04-08 20:23:00,74.7,55.9,30.00,East,90,0.0,5.6,52,0.00,,---,0.00,VWS V13.01,2013-04-09 00:23:00,
2013-04-08 20:28:00,74.5,55.7,30.00,ESE,112,0.0,5.6,52,0.00,,---,0.00,VWS V13.01,2013-04-09 00:28:00,
2013-04-08 20:33:00,74.3,56.1,30.00,East,90,0.0,6.0,53,0.00,,---,0.00,VWS V13.01,2013-04-09 00:33:00,
2013-04-08 20:38:00,74.3,56.1,30.00,East,90,0.0,6.0,53,0.00,,---,0.00,VWS V13.01,2013-04-09 00:38:00,
2013-04-08 20:43:00,74.5,56.2,30.00,ESE,112,2.5,6.0,53,0.00,,---,0.00,VWS V13.01,2013-04-09 00:43:00,
2013-04-08 20:48:00,74.3,56.6,30.00,ESE,112,1.6,6.0,54,0.00,,---,0.00,VWS V13.01,2013-04-09 00:48:00,
2013-04-08 20:53:00,74.1,56.4,30.00,ESE,112,0.0,6.0,54,0.00,,---,0.00,VWS V13.01,2013-04-09 00:53:00,
2013-04-08 20:58:00,74.3,57.1,30.01,East,90,0.0,6.0,55,0.00,,---,0.00,VWS V13.01,2013-04-09 00:58:00,
2013-04-08 21:03:00,74.1,56.9,30.00,ENE,68,4.5,4.5,55,0.00,,---,0.00,VWS V13.01,2013-04-09 01:03:00,
2013-04-08 21:08:00,74.1,56.9,30.01,ESE,112,3.1,6.0,55,0.00,,---,0.00,VWS V13.01,2013-04-09 01:08:00,
2013-04-08 21:13:00,74.1,56.9,30.01,East,90,0.0,6.0,55,0.00,,---,0.00,VWS V13.01,2013-04-09 01:13:00,
2013-04-08 21:18:00,74.1,56.4,30.01,ENE,68,0.0,6.0,54,0.00,,---,0.00,VWS V13.01,2013-04-09 01:18:00,
2013-04-08 21:23:00,73.9,56.3,30.01,ESE,112,2.0,6.0,54,0.00,,---,0.00,VWS V13.01,2013-04-09 01:23:00,
2013-04-08 21:28:00,73.9,56.3,30.02,ESE,112,0.0,6.0,54,0.00,,---,0.00,VWS V13.01,2013-04-09 01:28:00,
2013-04-08 21:34:00,74.1,56.4,30.02,ENE,68,0.0,6.0,54,0.00,,---,0.00,VWS V13.01,2013-04-09 01:34:00,
2013-04-08 21:39:00,73.9,56.3,30.02,ENE,68,0.0,6.0,54,0.00,,---,0.00,VWS V13.01,2013-04-09 01:39:00,
2013-04-08 21:44:00,73.8,56.1,30.02,SE,135,0.0,6.0,54,0.00,,---,0.00,VWS V13.01,2013-04-09 01:44:00,
2013-04-08 21:49:00,73.8,56.6,30.02,ENE,68,1.3,6.0,55,0.00,,---,0.00,VWS V13.01,2013-04-09 01:49:00,
2013-04-08 21:54:00,73.8,56.6,30.02,ENE,68,1.6,6.0,55,0.00,,---,0.00,VWS V13.01,2013-04-09 01:54:00,
2013-04-08 21:59:00,73.8,56.6,30.02,East,90,0.0,6.0,55,0.00,,---,0.00,VWS V13.01,2013-04-09 01:59:00,
2013-04-08 22:04:00,73.6,56.4,30.02,SE,135,2.2,2.2,55,0.00,,---,0.00,VWS V13.01,2013-04-09 02:04:00,
2013-04-08 22:09:00,73.6,56.4,30.02,ESE,112,0.0,2.2,55,0.00,,---,0.00,VWS V13.01,2013-04-09 02:09:00,
2013-04-08 22:14:00,73.6,56.4,30.03,ESE,112,0.0,2.2,55,0.00,,---,0.00,VWS V13.01,2013-04-09 02:14:00,
2013-04-08 22:19:00,73.6,56.9,30.03,ESE,112,0.0,2.2,56,0.00,,---,0.00,VWS V13.01,2013-04-09 02:19:00,
2013-04-08 22:24:00,73.4,56.8,30.03,East,90,0.0,2.2,56,0.00,,---,0.00,VWS V13.01,2013-04-09 02:24:00,
2013-04-08 22:29:00,73.2,56.6,30.03,East,90,0.0,2.2,56,0.00,,---,0.00,VWS V13.01,2013-04-09 02:29:00,
2013-04-08 22:34:00,73.0,56.9,30.03,ENE,68,0.0,2.2,57,0.00,,---,0.00,VWS V13.01,2013-04-09 02:34:00,
2013-04-08 22:39:00,73.0,56.9,30.03,ESE,112,0.0,2.2,57,0.00,,---,0.00,VWS V13.01,2013-04-09 02:39:00,
2013-04-08 22:44:00,73.0,56.9,30.03,ESE,112,0.0,2.2,57,0.00,,---,0.00,VWS V13.01,2013-04-09 02:44:00,
2013-04-08 22:49:00,72.9,56.8,30.03,ESE,112,0.0,2.2,57,0.00,,---,0.00,VWS V13.01,2013-04-09 02:49:00,
2013-04-08 22:55:00,72.9,57.2,30.03,SE,135,0.0,2.2,58,0.00,,---,0.00,VWS V13.01,2013-04-09 02:55:00,
2013-04-08 23:00:00,72.9,57.2,30.03,East,90,0.0,2.2,58,0.00,,---,0.00,VWS V13.01,2013-04-09 03:00:00,
2013-04-08 23:05:00,72.9,57.7,30.03,East,90,0.0,0.0,59,0.00,,---,0.00,VWS V13.01,2013-04-09 03:05:00,
2013-04-08 23:10:00,72.9,57.7,30.03,East,90,0.0,0.0,59,0.00,,---,0.00,VWS V13.01,2013-04-09 03:10:00,
2013-04-08 23:15:00,72.9,57.7,30.04,East,90,0.0,0.0,59,0.00,,---,0.00,VWS V13.01,2013-04-09 03:15:00,
2013-04-08 23:20:00,72.7,58.0,30.03,East,90,0.0,0.9,60,0.00,,---,0.00,VWS V13.01,2013-04-09 03:20:00,
2013-04-08 23:25:00,72.5,57.8,30.04,East,90,0.0,0.9,60,0.00,,---,0.00,VWS V13.01,2013-04-09 03:25:00,
2013-04-08 23:30:00,72.5,57.8,30.04,SE,135,0.0,0.9,60,0.00,,---,0.00,VWS V13.01,2013-04-09 03:30:00,
2013-04-08 23:35:00,72.5,58.3,30.03,ESE,112,0.0,0.9,61,0.00,,---,0.00,VWS V13.01,2013-04-09 03:35:00,
2013-04-08 23:40:00,72.5,58.3,30.04,ESE,112,0.0,0.9,61,0.00,,---,0.00,VWS V13.01,2013-04-09 03:40:00,
2013-04-08 23:45:00,72.5,58.3,30.04,ESE,112,0.0,0.9,61,0.00,,---,0.00,VWS V13.01,2013-04-09 03:45:00,
2013-04-08 23:50:00,72.3,58.6,30.03,ESE,112,0.0,0.9,62,0.00,,---,0.00,VWS V13.01,2013-04-09 03:50:00,
2013-04-08 23:55:00,72.3,58.6,30.03,ESE,112,0.0,0.9,62,0.00,,---,0.00,VWS V13.01,2013-04-09 03:55:00,